Home   Weather   Kannauj   Past weeks

Flag for India Past Weather in Kannauj, Uttar Pradesh, India — Yesterday and Last 2 Weeks

Now
43 °F

Fog.


Feels Like: 40 °F
Forecast: 53 / 76 °F
Wind: 5 mph from West

Location: Lucknow / Amausi

Current Time: Jan 21, 2017 at 6:04:34 am

Latest Report: Jan 21, 2017 at 5:00 am


Visibility: 1 mi

Pressure: 30.07 "Hg

Humidity: 93%

Dew Point: 41 °F

Location of KannaujLocation

Past Weather in Kannauj — Graph

°F

Kannauj Temperature Yesterday

Maximum temperature yesterday: 75 °F (at 2:30 pm)
Minimum temperature yesterday: 45 °F (at 7:00 am)
Average temperature yesterday: 59 °F

High & Low Weather Summary for the Past Weeks

 TemperatureHumidityPressure
High77 °F (Jan 16, 2:00 pm)100% (Jan 6, 5:00 am)30.21 "Hg (Jan 6, 5:00 am)
Low36 °F (Jan 12, 5:00 am)29% (Jan 10, 1:00 pm)29.80 "Hg (Jan 7, 2:00 pm)
Average56 °F74%30.01 "Hg
* Reported Jan 6 5:00 am — Jan 21 5:00 am, Kannauj, Weather by CustomWeather, © 2017

Note: Actual official high and low records may vary slightly from our data, if they occured in-between our weather recording intervals... More about our weather records

Advertising

Kannauj Weather History for the Previous 24 Hours

Scroll right to see more
 ConditionsComfort  
Time TempWeatherWind HumidityBarometerVisibility
5:00 am
Sat, Jan 21
43 °FFog.5 mph93%30.07 "Hg1 mi
4:00 am45 °FFog.3 mph93%30.04 "Hg1 mi
3:00 am46 °FFog.3 mph93%30.07 "Hg1 mi
2:00 am48 °FFog.6 mph87%30.07 "Hg1 mi
1:00 am50 °FFog.6 mph82%30.07 "Hg1 mi
12:00 am48 °FHaze.6 mph82%29.83 "Hg1 mi
11:00 pm
Fri, Jan 20
52 °FHaze.7 mph72%30.07 "Hg1 mi
10:00 pm52 °FHaze.7 mph72%30.07 "Hg1 mi
9:00 pm54 °FHaze.6 mph72%30.07 "Hg1 mi
8:30 pm55 °FHaze.7 mph63%30.07 "Hg1 mi
8:00 pm57 °FHaze.7 mph63%30.07 "Hg1 mi
7:30 pm57 °FHaze.6 mph59%30.07 "Hg2 mi
7:00 pm59 °FHaze.6 mph55%30.04 "Hg2 mi
6:00 pm63 °FHaze.6 mph49%30.04 "Hg2 mi
5:30 pm66 °FHaze.6 mph43%30.04 "Hg2 mi
5:00 pm70 °FHaze.8 mph35%30.04 "Hg3 mi
4:30 pm72 °FHaze.12 mph29%30.04 "Hg3 mi
4:00 pm73 °FHaze.10 mph31%30.04 "Hg3 mi
3:30 pm73 °FHaze.12 mph31%30.04 "Hg3 mi
3:00 pm73 °FHaze.9 mph33%30.04 "Hg3 mi
2:30 pm75 °FHaze.9 mph31%30.07 "Hg3 mi
2:00 pm73 °FHaze.12 mph31%30.07 "Hg2 mi
1:30 pm73 °FHaze.13 mph31%30.09 "Hg2 mi
1:00 pm70 °FHaze.13 mph38%30.09 "Hg2 mi
12:30 pm72 °FHaze.13 mph31%30.12 "Hg2 mi
12:00 pm70 °FHaze.12 mph35%30.15 "Hg1 mi
11:30 am68 °FHaze.8 mph43%30.15 "Hg1 mi
11:00 am64 °FHaze.7 mph46%30.15 "Hg1 mi
10:00 am59 °FHaze.8 mph59%30.18 "Hg1 mi
9:30 am57 °FHaze.8 mph63%30.18 "Hg1 mi
9:00 am52 °FFog.7 mph82%30.18 "Hg1 mi
8:30 am50 °FFog.2 mph82%30.15 "Hg1 mi
8:00 am46 °FFog.2 mph93%30.12 "Hg1 mi
7:30 am46 °FFog.3 mph87%30.12 "Hg1 mi
7:00 am45 °FFog.3 mph93%30.12 "Hg1 mi
6:30 am46 °FFog.2 mph93%30.12 "Hg1 mi
6:00 am48 °FFog.3 mph87%30.09 "Hg1 mi
Weather by CustomWeather, © 2017

See weather overviewHow to use our weather pages